Flag for Netherlands Weather past 2 weeks in Rotterdam, Netherlands

Now
79 °F

Passing clouds.


Feels Like: 80 °F
Forecast: 66 / 81 °F
Wind: 14 mph from Northeast

Location: Rotterdam Zestienhoven Airport

Current Time: Jul 22, 2014 at 7:50:54 PM

Latest Report: Jul 22, 2014 at 6:55 PM


Visibility: N/A

Pressure: 30.07 "Hg

Humidity: 58%

Dew point: 63 °F

Location of RotterdamLocation

Historic Weather in Rotterdam — Graph

°F

Rotterdam temperature yesterday

Maximum temperature yesterday: 68 °F (at 11:55 AM)
Minimum temperature yesterday: 63 °F (at 12:55 AM)
Average temperature yesterday: 66 °F

Past Weeks' High & Low Weather Summary

 TemperatureHumidityPressure
High95 °F (Jul 19, 3:25 PM)100% (Jul 9, 3:25 PM)30.18 "Hg (Jul 9, 3:25 PM)
Low55 °F (Jul 16, 2:55 AM)26% (Jul 19, 3:25 PM)29.71 "Hg (Jul 13, 2:55 PM)
Average68 °F80%29.94 "Hg
* Reported Jul 7 6:25 PM — Jul 22 6:55 PM, Rotterdam, Weather by CustomWeather, © 2014

Note: Actual official high and low records may vary slightly from our data, if they occured in-between our weather recording intervals... More about our weather records

Advertising

Rotterdam weather history for previous 24 hours

 ConditionsComfort  
Time TempWeatherWind HumidityBarometerVisibility
6:55 PM
Jul 22
79 °FPassing clouds.14 mph58%30.07 "HgN/A
6:25 PM81 °FPassing clouds.13 mph51%30.07 "HgN/A
5:55 PM81 °FScattered clouds.9 mph54%30.07 "HgN/A
5:25 PM81 °FPassing clouds.12 mph54%30.07 "HgN/A
4:55 PM81 °FPassing clouds.14 mph54%30.07 "HgN/A
4:25 PM81 °FClear.13 mph54%30.09 "HgN/A
3:55 PM79 °FClear.13 mph54%30.09 "HgN/A
3:25 PM79 °FWarm.12 mph58%30.09 "HgN/A
2:55 PM79 °FClear.12 mph58%30.09 "HgN/A
2:25 PM77 °FClear.12 mph57%30.09 "HgN/A
1:55 PM77 °FClear.14 mph57%30.09 "HgN/A
1:25 PM79 °FClear.12 mph54%30.09 "HgN/A
12:55 PM77 °FWarm.12 mph57%30.09 "HgN/A
12:25 PM77 °FClear.12 mph57%30.09 "HgN/A
11:55 AM75 °FMild.12 mph65%30.09 "HgN/A
11:25 AM75 °FClear.9 mph69%30.09 "HgN/A
10:55 AM73 °FScattered clouds.9 mph78%30.09 "HgN/A
10:25 AM72 °FPartly sunny.9 mph83%30.09 "HgN/A
9:55 AM72 °FPassing clouds.9 mph83%30.07 "HgN/A
9:25 AM72 °FPassing clouds.9 mph78%30.07 "HgN/A
8:55 AM70 °FClear.8 mph88%30.07 "HgN/A
8:25 AM70 °FClear.8 mph83%30.07 "HgN/A
7:55 AM70 °FClear.8 mph83%30.04 "HgN/A
7:25 AM68 °FClear.5 mph94%30.04 "HgN/A
6:55 AM66 °FClear.5 mph94%30.04 "Hg6 mi
6:25 AM66 °FClear.5 mph94%30.04 "Hg5 mi
5:55 AM66 °FClear.7 mph94%30.04 "Hg5 mi
5:25 AM66 °FLight rain. Partly cloudy.7 mph94%30.04 "Hg4 mi
4:55 AM66 °FMostly cloudy.8 mph94%30.04 "Hg4 mi
4:25 AM66 °FPassing clouds.9 mph94%30.04 "Hg4 mi
3:55 AM66 °FLow clouds.10 mph94%30.04 "Hg4 mi
3:25 AM66 °FMostly cloudy.9 mph94%30.04 "Hg5 mi
2:55 AM66 °FMostly cloudy.10 mph94%30.04 "Hg5 mi
2:25 AM66 °FMostly cloudy.9 mph94%30.04 "Hg4 mi
1:55 AM66 °FPassing clouds.10 mph94%30.04 "Hg5 mi
1:25 AM66 °FPartly cloudy.10 mph94%30.04 "Hg5 mi
12:55 AM66 °FPartly cloudy.12 mph94%30.04 "Hg3 mi
12:25 AM66 °FFog.13 mph94%30.04 "Hg3 mi
11:55 PM
Jul 21
66 °FFog.10 mph94%30.04 "Hg3 mi
11:25 PM66 °FFog.9 mph94%30.04 "Hg3 mi
10:55 PM66 °FMostly cloudy.9 mph94%30.04 "Hg4 mi
10:25 PM66 °FMostly cloudy.8 mph94%30.04 "Hg4 mi
9:55 PM66 °FCloudy.9 mph94%30.01 "Hg4 mi
9:25 PM66 °FMore clouds than sun.12 mph94%30.01 "Hg4 mi
8:55 PM66 °FDrizzle. Mostly cloudy.10 mph94%30.01 "Hg5 mi
8:25 PM66 °FLight rain. Mostly cloudy.10 mph94%30.01 "Hg6 mi
7:55 PM66 °FLight rain. Cloudy.9 mph94%30.01 "Hg4 mi
7:25 PM66 °FRain. Broken clouds.10 mph94%30.01 "Hg2 mi
Weather by CustomWeather, © 2014

See weather overviewHow to use our weather pages